www.pogodaiklimat.ru

Погода и климат >> Архив погоды >> Россия >> Приморский край >> Находка


АРХИВ ПОГОДЫ в Находке

Время (UTC), дата Ветер
(напр.,м/с)
 
Видим.   Явления Облачность Т
(С)
Тd
(С)
f
(%)
Тe
(С)
Тes
(С)
Комфортность P
(гПа)
Po
(гПа)
Тmin
(С)
Tmax
(С)
R
(мм)
R24
(мм)
S
(см)
15 11.04 В 2 20 км ясно +6.9 -5.4 41 +5 +5 тепло 1014.9 1008.0
18 11.04 В 1 20 км 1 балл +1.3 -3.9 68 -0 -0 по сезону 1013.7 1006.7
21 11.04 В 1 50 км ясно +1.8 -6.7 53 +1 +1 по сезону 1013.6 1006.7 +0.7
00 12.04 В 2 50 км ясно +8.5 -5.7 36 +7 +16 опасность
простуды
1014.5 1007.7
03 12.04 З 3 50 км ясно +15.7 -10.1 16 +15 +28 опасность
простуды
1014.7 1008.0
06 12.04 ЮЗ 6 50 км ясно +14.3 -10.4 17 +13 +17 тепло 1013.4 1006.7
09 12.04 ЮЗ 4
{11}
50 км ясно +10.8 -8.4 25 +9 +9 тепло 1014.8 1008.0 +16.7
12 12.04 штиль 0 20 км ясно +7.0 -5.0 42 +7 +7 тепло 1017.6 1010.7
15 12.04 штиль 0 20 км ясно +5.8 -5.2 45 +6 +6 тепло 1017.6 1010.7
18 12.04 ЮЗ 1 20 км ясно +1.4 -4.5 65 0 0 по сезону 1017.7 1010.7
21 12.04 Ю 1 50 км 3/0
[Ac lent]
+0.6 -4.1 71 -1 -1 по сезону 1017.0 1010.1 +0.6
00 13.04 штиль 0 50 км 10/0
[As trans]
+5.3 -3.2 54 +5 +9 тепло 1016.5 1009.7
03 13.04 Ю 4 20 км 10 баллов +8.6 +5.3 80 +6 +6 тепло 1016.1 1009.3
06 13.04 Ю 4 20 км 10 баллов +9.2 +5.2 76 +6 +6 по сезону 1014.8 1008.0
09 13.04 Ю 2 20 км 10/0
[Cs]
+7.3 +3.9 79 +5 +5 по сезону 1014.9 1008.0 +9.9
12 13.04 штиль 0 20 км 10 баллов +6.1 +3.1 81 +5 +5 тепло 1016.2 1009.3
15 13.04 СЗ 1 20 км 10 баллов +4.9 +2.4 84 +4 +4 тепло 1014.9 1008.0
18 13.04 С 1 4000 м дымка 10 баллов +4.2 +2.7 90 +3 +3 тепло 1015.0 1008.0
21 13.04 С 1 20 км 10/0
[Ac und]
+5.3 +1.9 79 +4 +4 тепло 1012.6 1005.8 +2.4
00 14.04 СВ 3 20 км 9/0
[Ac trans]
+6.8 +1.3 68 +4 +7 тепло 1011.5 1004.7
03 14.04 ЮВ 6-10
{10}
20 км 10/3 600 м
[Cb cap As op]
+8.2 +2.7 68 +4 +5 по сезону 1009.4 1002.7
06 14.04 ЮЗ 5
{10}
20 км слаб. ливневой дождь 10/8 600 м
[Cb cap As op]
+8.7 +3.7 71 +5 +5 по сезону 1006.8 1000.0
09 14.04 С 1
{10}
10 км слаб. ливневой дождь 10/10 600 м
[Cb cap]
+5.5 +4.5 93 +4 +4 по сезону 1006.9 1000.0 +9.9 3
12 14.04 С 4 10 км слаб. ливневой дождь 10/10 600 м
[Cb cap]
+5.8 +4.6 92 +2 +2 по сезону 1006.8 1000.1
15 14.04 СВ 1 10 км слаб. ливневой дождь 10 баллов +4.1 +3.4 95 +3 +3 по сезону 1008.2 1001.3
18 14.04 В 1 20 км в посл. час ливневой дождь 9 баллов +3.5 +2.9 96 +2 +2 по сезону 1008.2 1001.3
21 14.04 С 5-11
{13}
50 км 6/0
[Ac lent Ci fib]
+6.3 -0.0 64 +2 +3 по сезону 1007.7 1001.0 +3.5 3
00 15.04 СВ 2
{11}
50 км 3/0
[Ac lent]
+10.4 +0.6 51 +9 +16 тепло 1009.8 1003.1
03 15.04 С 4 50 км 1 балл +14.4 -6.5 23 +13 +23 тепло 1010.7 1004.0
06 15.04 З 6 50 км ясно +12.0 -4.2 32 +10 +14 тепло 1010.7 1004.0
09 15.04 З 6-11
{16}
50 км ясно +9.4 -6.5 32 +6 +7 тепло 1012.1 1005.3 +15.1
12 15.04 З 5-10
{12}
20 км ясно +8.1 -5.7 37 +5 +5 тепло 1013.4 1006.7
15 15.04 штиль 0 20 км ясно +7.0 -3.8 46 +7 +7 тепло 1014.9 1008.0
18 15.04 штиль 0 20 км ясно +3.6 -3.4 60 +3 +3 по сезону 1015.0 1008.0
21 15.04 В 1 50 км ясно +1.2 -2.5 76 -0 -0 по сезону 1012.4 1005.5 +1.2
00 16.04 В 1 20 км 9/4 600 м
[Sc Cc]
+7.5 -2.1 51 +7 +12 тепло 1012.2 1005.5
03 16.04 ЮВ 1 20 км 2 балла +12.2 +5.8 65 +12 +28 опасность
простуды
1010.7 1004.0
06 16.04 Ю 3 20 км 6 баллов +12.1 +5.9 66 +11 +14 тепло 1009.4 1002.7
09 16.04 Ю 1 20 км 3/0
[Ci fib]
+10.8 +4.3 64 +11 +11 тепло 1009.5 1002.7 +13.1
12 16.04 штиль 0 20 км 3/0
[Cc]
+5.9 +3.8 86 +5 +5 тепло 1010.3 1003.6
15 16.04 штиль 0 20 км ясно +6.2 +3.5 83 +5 +5 тепло 1010.9 1004.0
18 16.04 В 1 20 км ясно +4.8 +2.2 83 +4 +4 тепло 1010.9 1004.0
21 16.04 В 1 20 км ясно +3.7 +0.7 81 +2 +3 по сезону 1009.6 1002.7 +2.8
00 17.04 В 2 20 км ясно +9.9 +0.7 53 +9 +17 тепло 1008.5 1001.8
03 17.04 Ю 4 20 км ясно +17.0 +1.4 35 +17 +28 тепло 1007.9 1001.3
06 17.04 Ю 6 20 км ясно +13.6 +3.9 52 +12 +16 тепло 1006.7 1000.0
09 17.04 В 1 20 км 8/0
[Cs]
+14.1 -1.1 35 +15 +15 тепло 1006.7 1000.0 +18.3
12 17.04 В 1 20 км 8/0
[Cs]
+8.2 +3.7 73 +8 +8 тепло 1006.0 999.3
15 17.04 С 1 20 км 10 баллов +9.1 +1.5 59 +9 +9 тепло 1005.5 998.7
18 17.04 ЮЗ 1 20 км 10 баллов +8.9 +0.4 55 +9 +9 тепло 1004.1 997.3
21 17.04 З 1 20 км в посл. час ливневой дождь 10/8
[Cb cap As op]
+8.2 +3.3 71 +8 +8 тепло 1002.8 996.0 +7.4 0.7
00 18.04 штиль 0 20 км {ливн. осадки} 10/10 600 м
[Cb cap]
+11.0 +4.7 65 +11 +11 тепло 1002.7 996.0
03 18.04 Ю 1 4000 м ливневой дождь 10 баллов +7.1 +6.0 93 +6 +6 по сезону 1004.1 997.3
06 18.04 СЗ 3-10
{10}
20 км {ливн. осадки} 6/6 600 м
[Cb calv]
+14.2 +4.2 51 +13 +17 тепло 1003.9 997.3
09 18.04 СЗ 6-12
{16}
20 км 1/1 600 м
[Cu hum]
+9.6 -7.6 29 +7 +7 тепло 1008.1 1001.3 +14.3 3
12 18.04 С 5-11
{15}
20 км 3/3 1000 м
[Cu hum]
+5.9 -8.3 35 +2 +2 по сезону 1011.8 1005.1

 

Местоположение метеостанции Находка (Приморский край, Россия): широта 42.80 долгота 132.80 высота над уровнем моря 56 м.

В архиве по умолчанию представлена погода в Находке за последнюю неделю. Архивные данные за месяц целиком и за предыдущие месяцы, начиная с января 2011 года, Вы можете получить, выбрав интересующий диапазон дат из раскрывающегося списка и нажав кнопку "Ввод!".


*Определитесь, кто Вы:
робот инопланетянин человек

Внимание! Время в таблицах - всемирное. Для получения местного времени необходимо прибавить поправку, которая равна 10 ч.

Смотрите также архив погоды в соседних городах и на ближайших метеорологических станциях:

Погода в Партизанске (Приморский край, Россия) (42 км)
Погода на Мысе Назимова (Приморский край, Россия) (78 км)
Погода в Многоудобном (Приморский край, Россия) (79 км)
Погода в Владивостоке (Приморский край, Россия) (81 км)
Погода в Преображении (Приморский край, Россия) (90 км)
Погода в Лазо (Приморский край, Россия) (105 км)
Погода в Барабаше (Приморский край, Россия) (122 км)
Погода в Анучино (Приморский край, Россия) (131 км)
Погода в Гамове (Приморский край, Россия) (132 км)
Погода в Тимирязевском (Приморский край, Россия) (140 км)

Пояснения к столбцам:

Ветер - указаны скорость ветра в м/с - средняя за 10 мин, порывы в срок и между сроками (в фигурных скобках) и направление, откуда дует ветер: С - северный, СВ - северо-восточный, В - восточный, ЮВ - юго-восточный, Ю - южный, ЮЗ - юго-западный, З - западный, СЗ - северо-западный.
Видимость - горизонтальная дальность видимости в метрах или километрах. При видимости от 1 до 10 км при отсутствии осадков обычно наблюдается дымка, при ухудшении видимости до 1 км и менее - туман. В сухую погоду видимость может ухудшаться дымом, пылью или мглою.
Явления - указаны атмосферные явления, наблюдавшиеся в срок или в последний час перед сроком; фигурными скобками обозначены явления, наблюдавшиеся между сроками (за 1-3 часа до срока); квадратными скобками обозначены град или гололедные отложения с указанием их диаметра в мм.
Облачность - указаны через наклонную черту общая и нижняя облачность в баллах и высота нижней границы облаков в метрах; квадратными скобками обозначены формы облаков: Ci - перистые, Cs - перисто-слоистые, Cc - перисто-кучевые, Ac - высококучевые, As - высокослоистые, Sc - слоисто-кучевые, Ns - слоисто-дождевые, Cu - кучевые, Cb - кучево-дождевые. Подробнее классификацию облаков см. в Атласе облаков (PDF).
T - Температура воздуха - температура, измеренная на высоте 2 м над землей.
Td - Температура точки росы - температура, при понижении до которой содержащийся в воздухе водяной пар достигнет насыщения.
f - Относительная влажность воздуха - влажноcть воздуха, измеренная на высоте 2 м над землей.
Te - Эффективная температура - температура, которую ощущает одетый по сезону человек в тени. Характеристика душности погоды. При расчете учитывается влияние влажности воздуха и скорости ветра на теплоощущения человека.
Tes - Эффективная температура на солнце - температура, которую ощущает человек, с поправкой на солнечный нагрев. Характеристика знойности погоды. Зависит от высоты солнца над горизонтом, облачности и скорости ветра. Ночью, в пасмурную погоду, а также при ветре 12 м/с и более поправка равна нулю.
P - Атмосферное давление - приведенное к уровню моря атмосферное давление.
Po - Атмосферное давление - измеренное на уровне метеостанции атмосферное давление.
Tmin - Минимальная температура - минимум температуры воздуха на высоте 2 м над землей.
Tmax - Максимальная температура - максимум температуры воздуха на высоте 2 м над землей.
R - Количество осадков - Количество выпавших осадков за период времени, мм. При наведении курсора мыши на число - период времени, за который выпало указанное количество осадков.
R24 - Количество осадков - Количество выпавших осадков за 24 часа, мм.
S - Снежный покров - Высота снежного покрова, см. При наведении курсора мыши на число - состояние снежного покрова и степень покрытия местности в баллах.